Regional Weather Roundup
Issued by NWS Northern Indiana

Home | Current Version | Previous Version | Text Only | Print | Product List | Glossary Off
Versions: 1 2 3 4 5 6 7 8 9 10 11 12 13 14 15 16 17 18 19 20 21 22 23 24 25 26 27 28 29 30 31 32 33 34 35 36 37 38 39 40 41 42 43 44 45 46 47 48 49 50

000
ASUS43 KIWX 250900
RWRIWX

KIWX WEATHER ROUNDUP
NATIONAL WEATHER SERVICE NORTHERN INDIANA
400 AM EST THU DEC 25 2014

NOTE: "FAIR" INDICATES FEW OR NO CLOUDS BELOW 12,000 FEET WITH NO
SIGNIFICANT WEATHER AND/OR OBSTRUCTIONS TO VISIBILITY.

* THESE STATIONS ARE NOT UNDER NWS QUALITY CONTROL. THEY ALSO MAY NOT
  REPORT WEATHER SUCH AS PRECIPITATION OR FOG.

INZ001>027-251000-
NORTHERN INDIANA

CITY           SKY/WX    TMP DP  RH WIND       PRES   REMARKS
VALPARAISO     CLOUDY    36  32  87 W14       29.76R
SOUTH BEND     CLOUDY    37  32  82 W13       29.73R
GOSHEN         CLOUDY    36  33  89 W15       29.71R
ANGOLA*        CLOUDY    36  34  93 W10       29.67R
FORT WAYNE     CLOUDY    36  33  89 W17       29.74R
PERU/GRISSOM   CLOUDY    36  36 100 W17       29.78R

$$
INZ028>050-251000-
CENTRAL INDIANA

CITY           SKY/WX    TMP DP  RH WIND       PRES   REMARKS
LAFAYETTE      CLOUDY    36  32  85 W12       29.82R
KOKOMO*        CLOUDY    36  32  87 W17G24    29.79R
MUNCIE*        CLOUDY    37  33  85 W16       29.79R
INDIANAPOLIS   CLOUDY    34  33  96 W12       29.85R WCI  25

$$
MIZ043>046-050>051-056>058-064>065-071>073-077>080-251000-
SOUTHWEST LOWER MICHIGAN

CITY           SKY/WX    TMP DP  RH WIND       PRES   REMARKS
BATTLE CREEK   CLOUDY    36  33  89 W13       29.65R
BENTON HARBOR  CLOUDY    37  32  82 W23G29    29.71R
COLDWATER*     CLOUDY    35  34  95 W12G18    29.66R WCI  27
HILLSDALE*     LGT RAIN  36  36 100 W12G17    29.64R
HOLLAND        CLOUDY    39  31  72 W10G25    29.66R
GRAND RAPIDS   CLOUDY    37  35  92 W17       29.62R
KALAMAZOO      CLOUDY    37  33  85 W16       29.66R
STURGIS*       MIX PCPN  36  34  93 W14G21    29.68R
THREE RIVERS*  CLOUDY    37  33  88 W16       29.68R

$$
OHZ001>008-015>018-024>025-251000-
NORTHWEST OHIO

CITY           SKY/WX    TMP DP  RH WIND       PRES   REMARKS
DEFIANCE       CLOUDY    37  34  89 SW12G20   29.71R
FINDLAY        CLOUDY    38  33  82 W20G32    29.71R
TOLEDO EXPRESS CLOUDY    37  33  85 W20       29.67R
TOLEDO METCALF CLOUDY    38  33  82 SW16G24   29.68R
LIMA           LGT RAIN  38  33  82 W17       29.73R

$$
AND FOR LAKE MICHIGAN COASTAL AND OPEN LAKE BUOY OBSERVATIONS

STATION/POSITION TEMP    WIND        PRES    VSBY  WAVE
                 AIR SEA DIR/SP/G                  HT/PER
                 (F)     (DEG/KT/KT) (MB)    (MI)  (FT/S)
CALUMET HARBOR    37     240/  6/ 12 1006.0R
MICHIGAN CITY     37     240/ 21/ 24   N/A
SAINT JOSEPH      38     240/ 17/ 23 1006.1R

$$
&&


USA.gov is the U.S. government's official web portal to all federal, state and local government web resources and services.